[[{"header":{"parameterUnit":"m.s-1","parameterCategory":1,"la1":30.2991,"la2":30.254,"lo1":-89.0895,"lo2":-89.0444,"dy":0.0017,"dx":0.0017,"nx":28,"ny":28,"refTime":"2024-12-12T03:00:00:Z","depth":0,"parameterNumber":2,"parameterNumberName":"U-component_of_WINDS"},"data":[0,0,0,0,0,0,0,0,0,0,0,0,0,0,0,0,0,0,0,0,0,0,0,0,0,0,0,0,0,0,0,0,0,0,0,0,0,0,0,0,0,0,0,0,0,0,0,0,0,0,0,0,0,0,0,0,0,0,-3.7241,-3.7241,0,-3.725,-3.725,-3.725,-3.7152,-3.7149,-3.7146,-3.7144,-3.7157,-3.716,-3.7163,0,0,0,0,0,0,0,0,0,0,0,0,0,-3.7142,-3.7144,-3.7241,-3.7241,-3.7241,-3.725,-3.725,-3.725,-3.7152,-3.7149,-3.7145,-3.7142,-3.7156,-3.7159,-3.7163,0,0,0,0,0,0,0,0,0,0,0,0,0,-3.7172,-3.7145,-3.7241,-3.7193,-3.7189,-3.725,-3.725,-3.725,-3.7153,-3.7149,-3.7145,-3.7141,-3.7155,-3.7159,-3.7163,-3.7272,0,0,-3.7177,-3.7178,0,0,0,0,0,0,0,0,-3.717,-3.7175,-3.72,-3.7196,-3.7192,-3.7195,-3.722,-3.7258,-3.7154,-3.7167,-3.7143,-3.7139,-3.7173,-3.7176,-3.7187,-3.7273,-3.7273,-3.7177,-3.718,-3.7181,-3.7183,0,0,0,0,0,0,0,-3.7168,-3.7175,-3.7245,-3.72,-3.7196,-3.7172,-3.7172,-3.7227,-3.7193,-3.7165,-3.7158,-3.716,-3.717,-3.7183,-3.7186,-3.7273,-3.7177,-3.7181,-3.7183,-3.7185,-3.745,-3.7455,0,0,0,0,0,0,-3.7172,-3.7173,-3.7244,-3.7245,-3.7171,-3.7178,-3.7177,-3.7198,-3.7192,-3.7187,-3.7164,-3.7156,-3.7177,-3.7181,-3.7186,-3.7314,-3.7181,-3.7186,-3.7188,-3.7446,-3.7451,-3.7456,0,0,0,0,0,0,-3.717,-3.7179,-3.7244,-3.7207,-3.7214,-3.7184,-3.7208,-3.7201,-3.7213,-3.7191,-3.7185,-3.7182,-3.7174,-3.718,-3.7251,-3.7313,-3.7187,-3.7191,-3.7441,-3.7448,-3.7454,-3.7571,0,0,0,0,0,0,-3.7168,-3.7179,-3.7219,-3.7209,-3.7216,-3.7308,-3.7212,-3.7204,-3.722,-3.721,-3.7207,-3.7202,-3.7172,-3.7246,-3.7256,-3.7317,-3.7195,-3.7435,-3.7444,-3.7452,-3.7561,-3.7581,-3.7597,0,0,0,0,0,-3.7165,-3.7252,-3.7222,-3.7231,-3.7265,-3.7312,-3.7316,-3.7278,-3.7226,-3.7267,-3.7252,-3.7202,-3.7305,-3.7254,-3.7264,-3.7328,-3.7431,-3.7441,-3.7451,-3.7553,-3.7577,-3.7597,0,0,0,0,0,0,-3.7272,-3.725,-3.7216,-3.7303,-3.731,-3.7295,-3.7345,-3.7304,-3.7326,-3.7316,-3.7268,-3.7269,-3.7348,-3.7345,-3.7288,-3.7434,-3.7359,-3.7372,-3.7433,-3.7455,-3.7473,-3.7473,-3.7198,0,0,0,0,0,-3.7306,-3.7344,-3.7323,-3.7402,-3.7407,-3.7376,-3.7395,-3.7364,-3.737,-3.7373,-3.7364,-3.7373,-3.7407,-3.7431,-3.7461,-3.756,-3.7559,-3.7609,-3.7627,-3.7642,-3.7654,-3.7708,-3.7731,-3.7489,-3.7489,-3.7489,0,0,-3.7376,-3.7369,-3.7396,-3.7423,-3.7425,-3.7468,-3.7379,-3.7427,-3.7459,-3.7381,-3.7448,-3.7442,-3.7448,-3.7534,-3.7572,-3.7534,-3.772,-3.7654,-3.7666,-3.7671,-3.7721,-3.7744,-3.7764,-3.7496,-3.7495,-3.7493,0,0,-3.7526,-3.7524,-3.7589,-3.7593,-3.7597,-3.7575,-3.7591,-3.7583,-3.7576,-3.7641,-3.7584,-3.7622,-3.7681,-3.7688,-3.77,-3.7854,-3.781,-3.7865,-3.7959,-3.8013,-3.8032,-3.8048,-3.8105,-3.8126,-3.7876,-3.7877,-3.7877,0,-3.7614,-3.7674,-3.7629,-3.7681,-3.7696,-3.7626,-3.7693,-3.7699,-3.7713,-3.7726,-3.7682,-3.7756,-3.7755,-3.7843,-3.7881,-3.7892,-3.791,-3.7866,-3.8032,-3.8049,-3.8063,-3.8117,-3.8138,-3.7884,-3.7883,-3.7882,-3.7881,0,-3.7782,-3.7825,-3.7878,-3.7892,-3.7912,-3.7972,-3.7938,-3.7964,-3.7932,-3.7916,-3.7985,-3.7981,-3.801,-3.8028,-3.7998,-3.8113,-3.8089,-3.804,-3.7965,-3.8094,-3.8144,-3.8164,-3.7893,-3.7891,-3.7889,-3.7887,0,0,-3.8001,-3.799,-3.801,-3.8016,-3.8015,-3.8048,-3.8105,-3.8132,-3.8157,-3.8169,-3.8217,-3.8269,-3.8223,-3.8237,-3.8206,-3.8253,-3.8377,-3.8198,-3.8197,-3.8233,-3.8506,-3.8544,-3.8569,-3.8347,-3.835,-3.8353,-3.8506,0,-3.8149,-3.8245,-3.8206,-3.8306,-3.8346,-3.828,-3.833,-3.8336,-3.8323,-3.8356,-3.8341,-3.8379,-3.8315,-3.8323,-3.8366,-3.8353,-3.8432,-3.8341,-3.8393,-3.8396,-3.8396,-3.8594,-3.8635,-3.8779,-3.8525,-3.8528,-3.853,0,-3.8334,-3.8353,-3.8457,-3.845,-3.8465,-3.851,-3.8533,-3.8564,-3.857,-3.8557,-3.8573,-3.8532,-3.8589,-3.8513,-3.8592,-3.8531,-3.855,-3.8547,-3.8552,-3.8557,-3.8473,-3.8607,-3.8824,-3.8847,-3.856,-3.8558,-3.8556,0,-3.8486,-3.8537,-3.8606,-3.8613,-3.8606,-3.864,-3.8639,-3.864,-3.8659,-3.8679,-3.8692,-3.8718,-3.8734,-3.8756,-3.8725,-3.8671,-3.881,-3.873,-3.8802,-3.8804,-3.8836,-3.8835,-3.9061,-3.8845,-3.8845,-3.8844,-3.8844,0,-3.8656,-3.8723,-3.8675,-3.8718,-3.8791,-3.8746,-3.8821,-3.8812,-3.8814,-3.8855,-3.88,-3.884,-3.8795,-3.8831,-3.8807,-3.8878,-3.8885,-3.8877,-3.8871,-3.8884,-3.8885,-3.8897,-3.8887,-3.885,-3.8849,-3.8848,-3.8847,0,-3.884,-3.8809,-3.8881,-3.8868,-3.8866,-3.8921,-3.8911,-3.8951,-3.8932,-3.8986,-3.8996,-3.8968,-3.9009,-3.8979,-3.9019,-3.9002,-3.9096,-3.9074,-3.9094,-3.9089,-3.9164,-3.9159,-3.9408,-3.944,-3.9201,-3.9204,-3.9206,0,-3.8951,-3.9001,-3.8993,-3.9016,-3.9018,-3.9056,-3.9075,-3.9033,-3.9056,-3.9066,-3.9106,-3.914,-3.9166,-3.9234,-3.9219,-3.9249,-3.9229,-3.9315,-3.9234,-3.9246,-3.9233,-3.9232,-3.9237,-3.9332,-3.9335,-3.9337,-3.9339,0,-3.9153,-3.9136,-3.9164,-3.9189,-3.9213,-3.9231,-3.9244,-3.9266,-3.9224,-3.9252,-3.9292,-3.9312,-3.9352,-3.9389,-3.9414,-3.9414,-3.9371,-3.9364,-3.9383,-3.9398,-3.9408,-3.9406,-3.9142,-3.9359,-3.9357,-3.9355,-3.9354,-3.9354,-3.9305,-3.9347,-3.9348,-3.9383,-3.9388,-3.9401,-3.9439,-3.9425,-3.9457,-3.9486,-3.9459,-3.9508,-3.9514,-3.9543,-3.9548,-3.9587,-3.9552,-3.9579,-3.9586,-3.9594,-3.9606,-3.94,-3.9591,-3.959,-3.959,-3.9589,-3.9589,0,-3.9506,-3.9503,-3.9535,-3.9555,-3.9583,-3.9537,-3.9549,-3.9576,-3.9619,-3.9627,-3.9654,-3.9701,-3.9736,-3.9723,-3.9755,-3.9788,-3.9769,-3.9798,-3.9796,-3.9798,-3.9634,-3.9615,-3.9813,-3.9813,-3.9813,-3.9813,-3.9813,-3.9813,-3.9614,-3.9683,-3.9666,-3.9737,-3.9734,-3.978,-3.9791,-3.9804,-3.9811,-3.9865,-3.9893,-3.9884,-3.9885,-3.9916,-3.9947,-3.9942,-3.9958,-3.9994,-3.9983,-3.9831,-3.9809,-3.9788,-3.977,-3.9998,-3.9998,-4.0144,-4.0145,-4.0146]},{"header":{"parameterUnit":"m.s-1","parameterCategory":1,"la1":30.2991,"la2":30.254,"lo1":-89.0895,"lo2":-89.0444,"dy":0.0017,"dx":0.0017,"nx":28,"ny":28,"refTime":"2024-12-12T03:00:00:Z","depth":0,"parameterNumber":3,"parameterNumberName":"V-component_of_WINDS"},"data":[0,0,0,0,0,0,0,0,0,0,0,0,0,0,0,0,0,0,0,0,0,0,0,0,0,0,0,0,0,0,0,0,0,0,0,0,0,0,0,0,0,0,0,0,0,0,0,0,0,0,0,0,0,0,0,0,0,0,-0.4969,-0.4969,0,-0.5012,-0.5012,-0.5013,-0.5004,-0.5003,-0.5002,-0.5001,-0.5047,-0.5049,-0.5051,0,0,0,0,0,0,0,0,0,0,0,0,0,-0.488,-0.4881,-0.4969,-0.4969,-0.497,-0.5012,-0.5012,-0.5013,-0.5004,-0.5003,-0.5002,-0.5001,-0.5046,-0.5049,-0.5051,0,0,0,0,0,0,0,0,0,0,0,0,0,-0.492,-0.4882,-0.4969,-0.4971,-0.4971,-0.5012,-0.5012,-0.5013,-0.5004,-0.5003,-0.5002,-0.5001,-0.5046,-0.5048,-0.5051,-0.5093,0,0,-0.506,-0.5061,0,0,0,0,0,0,0,0,-0.4918,-0.4923,-0.497,-0.4971,-0.4971,-0.5001,-0.4997,-0.504,-0.5004,-0.4992,-0.5001,-0.5,-0.5033,-0.5037,-0.5047,-0.5095,-0.5097,-0.506,-0.5062,-0.5064,-0.5064,0,0,0,0,0,0,0,-0.4915,-0.4922,-0.4986,-0.497,-0.4971,-0.4969,-0.4974,-0.5005,-0.5018,-0.4993,-0.4992,-0.4997,-0.5033,-0.5045,-0.5048,-0.5098,-0.506,-0.5063,-0.5065,-0.5066,-0.5182,-0.5183,0,0,0,0,0,0,-0.4912,-0.4919,-0.4985,-0.4987,-0.4941,-0.4972,-0.4977,-0.4993,-0.5018,-0.5021,-0.4998,-0.4997,-0.504,-0.5045,-0.505,-0.5101,-0.5063,-0.5066,-0.5068,-0.5181,-0.5182,-0.5184,0,0,0,0,0,0,-0.491,-0.4917,-0.4983,-0.4953,-0.4961,-0.4975,-0.4993,-0.4994,-0.5006,-0.5022,-0.5025,-0.5008,-0.5039,-0.5046,-0.5082,-0.5102,-0.5068,-0.507,-0.5179,-0.5181,-0.5183,-0.5203,0,0,0,0,0,0,-0.4907,-0.4917,-0.4933,-0.4954,-0.4963,-0.5015,-0.4994,-0.4996,-0.5011,-0.5009,-0.5032,-0.5034,-0.5039,-0.5078,-0.5085,-0.5106,-0.5072,-0.5177,-0.518,-0.5182,-0.5201,-0.5206,-0.521,0,0,0,0,0,-0.4904,-0.4937,-0.4934,-0.4942,-0.4983,-0.5016,-0.5021,-0.5025,-0.5012,-0.5029,-0.5039,-0.5034,-0.5098,-0.5082,-0.509,-0.5112,-0.5176,-0.5179,-0.5182,-0.5199,-0.5205,-0.521,0,0,0,0,0,0,-0.492,-0.494,-0.4937,-0.4978,-0.4995,-0.5014,-0.5035,-0.5031,-0.5053,-0.5051,-0.5055,-0.506,-0.5098,-0.5108,-0.5089,-0.5153,-0.5136,-0.514,-0.5146,-0.5151,-0.5156,-0.5153,-0.5075,0,0,0,0,0,-0.4928,-0.4952,-0.4969,-0.5003,-0.5012,-0.5022,-0.5036,-0.5038,-0.5056,-0.5064,-0.5076,-0.5095,-0.5119,-0.5135,-0.5159,-0.5201,-0.5206,-0.522,-0.5225,-0.5228,-0.5233,-0.5256,-0.5263,-0.5193,-0.5193,-0.5193,0,0,-0.4945,-0.4959,-0.4975,-0.5007,-0.5021,-0.5046,-0.5028,-0.5056,-0.5075,-0.5068,-0.5103,-0.5113,-0.5134,-0.5173,-0.5192,-0.5183,-0.5253,-0.5232,-0.5235,-0.5238,-0.526,-0.5267,-0.5272,-0.5195,-0.5195,-0.5195,0,0,-0.499,-0.5003,-0.5033,-0.5047,-0.5067,-0.5073,-0.508,-0.51,-0.5106,-0.5141,-0.5136,-0.5159,-0.5201,-0.5216,-0.5229,-0.5277,-0.5273,-0.5284,-0.5309,-0.5331,-0.5337,-0.5342,-0.536,-0.5366,-0.5289,-0.5289,-0.5289,0,-0.501,-0.5048,-0.505,-0.5078,-0.5092,-0.5085,-0.5116,-0.5129,-0.5156,-0.5166,-0.5156,-0.5208,-0.5222,-0.5265,-0.5276,-0.5287,-0.5295,-0.5283,-0.5336,-0.5341,-0.5345,-0.5363,-0.5369,-0.529,-0.529,-0.529,-0.529,0,-0.5071,-0.5097,-0.5119,-0.5145,-0.5161,-0.519,-0.5197,-0.5213,-0.5212,-0.5219,-0.5255,-0.527,-0.5297,-0.5306,-0.5306,-0.5349,-0.5344,-0.5334,-0.5317,-0.5353,-0.537,-0.5376,-0.5292,-0.5291,-0.5291,-0.5291,0,0,-0.513,-0.5154,-0.5163,-0.5174,-0.5195,-0.5215,-0.5244,-0.5269,-0.5283,-0.5301,-0.5326,-0.536,-0.5351,-0.5366,-0.5367,-0.5387,-0.5425,-0.5376,-0.5376,-0.5385,-0.5474,-0.5482,-0.549,-0.5422,-0.5423,-0.5424,-0.5473,0,-0.5177,-0.5228,-0.5229,-0.5275,-0.53,-0.5292,-0.5317,-0.5333,-0.534,-0.5361,-0.5368,-0.5393,-0.5379,-0.5388,-0.5407,-0.5417,-0.5444,-0.5413,-0.5446,-0.5447,-0.5443,-0.5498,-0.5507,-0.5553,-0.5479,-0.548,-0.5481,0,-0.5241,-0.526,-0.5309,-0.5325,-0.5336,-0.5358,-0.5381,-0.5401,-0.5418,-0.5421,-0.5437,-0.5435,-0.5464,-0.5444,-0.5484,-0.5464,-0.5477,-0.5483,-0.5485,-0.549,-0.5468,-0.5506,-0.5568,-0.5575,-0.5491,-0.549,-0.549,0,-0.528,-0.5318,-0.5352,-0.5362,-0.5382,-0.5398,-0.5407,-0.5423,-0.5437,-0.5457,-0.5466,-0.5489,-0.5502,-0.552,-0.5524,-0.5509,-0.5565,-0.5545,-0.5569,-0.5569,-0.5583,-0.5583,-0.5649,-0.5589,-0.5588,-0.5588,-0.5588,0,-0.5334,-0.5365,-0.537,-0.5391,-0.5424,-0.5425,-0.5458,-0.5466,-0.548,-0.5502,-0.5497,-0.5518,-0.5522,-0.5544,-0.5547,-0.558,-0.5586,-0.559,-0.5591,-0.5591,-0.5591,-0.5602,-0.5599,-0.559,-0.559,-0.5589,-0.5589,0,-0.5385,-0.539,-0.5426,-0.5442,-0.5446,-0.547,-0.5483,-0.5504,-0.5509,-0.5537,-0.5544,-0.5552,-0.5578,-0.5583,-0.5613,-0.5615,-0.5656,-0.5652,-0.565,-0.565,-0.5675,-0.5673,-0.5752,-0.5762,-0.5693,-0.5694,-0.5695,0,-0.542,-0.5443,-0.5461,-0.5475,-0.5485,-0.5508,-0.5523,-0.5524,-0.5539,-0.556,-0.5577,-0.5602,-0.5622,-0.5663,-0.5672,-0.5695,-0.5694,-0.5719,-0.5697,-0.5697,-0.5696,-0.5695,-0.5698,-0.5725,-0.5725,-0.5726,-0.5726,0,-0.5483,-0.5484,-0.5505,-0.5526,-0.5544,-0.5561,-0.5577,-0.5589,-0.5592,-0.561,-0.5636,-0.5651,-0.5681,-0.5706,-0.5729,-0.5738,-0.5734,-0.5733,-0.574,-0.5742,-0.574,-0.5743,-0.5663,-0.5732,-0.5731,-0.5731,-0.5731,-0.573,-0.5528,-0.5548,-0.5563,-0.5587,-0.5599,-0.5614,-0.5633,-0.564,-0.5661,-0.5686,-0.5685,-0.5713,-0.5729,-0.5759,-0.5769,-0.5792,-0.5784,-0.5794,-0.5797,-0.5799,-0.5802,-0.5735,-0.5796,-0.5795,-0.5795,-0.5795,-0.5795,0,-0.5591,-0.56,-0.5622,-0.5644,-0.5663,-0.5654,-0.5672,-0.5688,-0.5712,-0.5727,-0.5746,-0.5776,-0.5799,-0.5809,-0.5833,-0.5848,-0.5847,-0.5855,-0.5855,-0.5857,-0.5808,-0.58,-0.5856,-0.5856,-0.5856,-0.5856,-0.5856,-0.5856,-0.5627,-0.566,-0.5662,-0.5701,-0.571,-0.5737,-0.5748,-0.5762,-0.5773,-0.5806,-0.5825,-0.5831,-0.5844,-0.5868,-0.5889,-0.5892,-0.5901,-0.5911,-0.5912,-0.5866,-0.586,-0.5855,-0.5847,-0.5912,-0.5912,-0.596,-0.596,-0.596]}]]